Location: Unspecified
(42.0334°N, 93.6656°W)
Time: 02:57:19
(UTC-05:00)

Amateur Radio Satellites - All Passes

Search period start: 20 September 2014 02:27
Search period end: 21 September 2014 02:27
Location: Unspecified, 42.0334°N, 93.6656°W

Satellite Date Start Highest point End Downlink Frequencies (MHz)
Time Altitude Azimuth
AO-27 20 Sep 02:27:22 02:31:03 19° 92° (E) 02:34:43 436.795 MHz FM
JAS-1B 20 Sep 02:43:38 02:48:41 31° 96° (E) 02:53:42 435.800 - 435.900 CW/SSB
Oscar 16 20 Sep 02:46:24 02:51:35 69° 102° (ESE) 02:56:43 437.025 USB, Beacon 2401.1428
AO-Echo 20 Sep 02:56:38 03:01:14 41° 99° (E) 03:05:56 ?
PANSAT 20 Sep 02:57:06 02:57:12 10° 174° (S) 02:57:18 not established
Saudisat 1A 20 Sep 03:12:42 03:16:44 35° 244° (WSW) 03:20:44 436.775 MHz
Gurwin Techsat 1B 20 Sep 03:21:21 03:25:59 30° 95° (E) 03:30:34 435.225 FM
KITSAT 1 20 Sep 03:26:05 03:33:02 30° 40° (NE) 03:39:55 435.175 FM
ITAMSAT 1 20 Sep 03:30:31 03:35:45 73° 103° (ESE) 03:40:58 435.822 SSB
Uribyol 2 20 Sep 03:34:38 03:39:53 85° 104° (ESE) 03:45:07 436.500 FM
Oscar 19 20 Sep 03:47:10 03:51:49 35° 292° (WNW) 03:56:26 437.125 CW, 437.150 USB
ISS 20 Sep 03:48:35 03:51:53 58° 329° (NNW) 03:55:11 145.800 FM
TMSAT-1 20 Sep 03:57:48 04:02:56 47° 99° (E) 04:08:01 436.925 FM
AO-27 20 Sep 04:05:48 04:10:52 53° 289° (WNW) 04:15:56 436.795 MHz FM
OPAL 20 Sep 04:16:11 04:20:50 34° 65° (ENE) 04:25:31 ?
RS-15 20 Sep 04:23:06 04:33:43 55° 113° (ESE) 04:44:10 29.354 - 29.394 USB, Beacon 29.352 USB
Oscar 16 20 Sep 04:27:14 04:30:21 16° 300° (WNW) 04:33:27 437.025 USB, Beacon 2401.1428
JAS-1B 20 Sep 04:34:19 04:39:26 34° 295° (WNW) 04:44:29 435.800 - 435.900 CW/SSB
AO-Echo 20 Sep 04:36:00 04:39:47 23° 294° (WNW) 04:43:37 ?
Gurwin Techsat 1B 20 Sep 05:01:09 05:05:58 36° 292° (WNW) 05:10:45 435.225 FM
ITAMSAT 1 20 Sep 05:11:37 05:14:38 16° 300° (WNW) 05:17:38 435.822 SSB
Uribyol 2 20 Sep 05:16:07 05:18:38 14° 301° (WNW) 05:21:09 436.500 FM
KITSAT 1 20 Sep 05:21:09 05:29:14 77° 242° (WSW) 05:37:16 435.175 FM
AO-7 20 Sep 05:24:03 05:32:12 57° 103° (ESE) 05:40:18 29.400 - 29.500 MHz
ISS 20 Sep 05:26:41 05:29:07 18° 348° (NNW) 05:31:33 145.800 FM
SO-50 20 Sep 05:32:39 05:34:07 11° 32° (NNE) 05:35:36 436.795 FM
TMSAT-1 20 Sep 05:38:24 05:42:32 24° 296° (WNW) 05:46:39 436.925 FM
Uosat F 20 Sep 05:45:32 05:50:35 84° 104° (ESE) 05:55:37 435.120 FM
OPAL 20 Sep 05:55:07 05:59:41 31° 262° (W) 06:04:18 ?
JAS-2 20 Sep 06:29:09 06:34:48 38° 98° (E) 06:41:06 435.800 - 435.900 CW/SSB, 435.910 FM
Hamsat 20 Sep 06:33:43 06:37:29 30° 96° (E) 06:41:11 145.90 MHz
RS-15 20 Sep 06:35:44 06:46:14 48° 316° (NW) 06:56:45 29.354 - 29.394 USB, Beacon 29.352 USB
STRAND 1 20 Sep 06:36:33 06:41:17 41° 69° (ENE) 06:46:03 ?
ISS 20 Sep 07:04:29 07:06:46 17° 8° (N) 07:09:02 145.800 FM
SO-50 20 Sep 07:11:03 07:15:46 53° 52° (NE) 07:20:31 436.795 FM
AO-7 20 Sep 07:17:23 07:24:36 35° 302° (WNW) 07:31:48 29.400 - 29.500 MHz
KITSAT 1 20 Sep 07:19:20 07:23:17 15° 261° (W) 07:27:13 435.175 FM
Uosat F 20 Sep 07:26:25 07:28:40 13° 301° (WNW) 07:30:56 435.120 FM
MaSat-1 20 Sep 07:28:39 07:30:44 13° 100° (E) 07:32:49 437.345 MHz
SO-67 20 Sep 07:41:40 07:44:22 21° 95° (E) 07:47:03 435.3500 MHz FM
Hamsat 20 Sep 08:09:54 08:13:18 24° 292° (WNW) 08:16:40 145.90 MHz
JAS-2 20 Sep 08:14:25 08:19:49 36° 292° (WNW) 08:25:50 435.800 - 435.900 CW/SSB, 435.910 FM
STRAND 1 20 Sep 08:16:32 08:20:36 24° 266° (W) 08:24:42 ?
ISS 20 Sep 08:40:55 08:44:07 43° 28° (NNE) 08:47:18 145.800 FM
UOSAT-12 20 Sep 08:45:50 08:50:20 41° 50° (NE) 08:54:46 437.025 FM, 437.400 FM
SO-50 20 Sep 08:52:29 08:55:58 20° 249° (WSW) 08:59:29 436.795 FM
RS-15 20 Sep 08:54:06 09:02:13 23° 349° (NNW) 09:10:25 29.354 - 29.394 USB, Beacon 29.352 USB
MaSat-1 20 Sep 09:01:48 09:06:50 82° 296° (WNW) 09:11:47 437.345 MHz
SO-67 20 Sep 09:14:37 09:17:18 21° 290° (WNW) 09:19:59 435.3500 MHz FM
HO-68 20 Sep 09:23:02 09:29:04 28° 95° (E) 09:35:04 435.675 MHz FM
Oscar 11 20 Sep 09:46:55 09:48:07 11° 89° (E) 09:49:19 145.825 FM, Beacon 2401.500 USB
UKube-1 20 Sep 10:02:27 10:05:53 22° 95° (E) 10:09:18 145.840 MHz, 145.915 MHz
ISS 20 Sep 10:17:54 10:20:41 25° 225° (SW) 10:23:28 145.800 FM
UOSAT-12 20 Sep 10:26:26 10:30:16 25° 248° (WSW) 10:34:03 437.025 FM, 437.400 FM
MaSat-1 20 Sep 10:41:45 10:44:17 14° 314° (NW) 10:46:46 437.345 MHz
HO-68 20 Sep 11:10:07 11:17:06 57° 292° (WNW) 11:24:04 435.675 MHz FM
RS-15 20 Sep 11:10:36 11:19:40 28° 25° (NNE) 11:28:54 29.354 - 29.394 USB, Beacon 29.352 USB
FUNcube-1 20 Sep 11:12:13 11:16:36 41° 98° (E) 11:20:55 145.950 - 145.970 MHz USB
Oscar 11 20 Sep 11:20:25 11:24:45 67° 285° (WNW) 11:29:02 145.825 FM, Beacon 2401.500 USB
UKube-1 20 Sep 11:38:12 11:42:08 33° 291° (WNW) 11:46:02 145.840 MHz, 145.915 MHz
Sapphire 20 Sep 11:50:51 11:55:19 27° 108° (ESE) 11:59:50 437.095 MHz 1200 baud AX-25 AFSK
PCSat 20 Sep 12:16:54 12:22:05 50° 114° (ESE) 12:27:18 145.825 MHz
Oscar 16 20 Sep 12:27:34 12:30:15 14° 59° (ENE) 12:32:56 437.025 USB, Beacon 2401.1428
FUNcube-1 20 Sep 12:49:14 12:52:42 21° 295° (WNW) 12:56:08 145.950 - 145.970 MHz USB
HO-68 20 Sep 13:01:07 13:03:17 12° 312° (NW) 13:05:27 435.675 MHz FM
ITAMSAT 1 20 Sep 13:12:21 13:15:20 16° 60° (ENE) 13:18:19 435.822 SSB
Uribyol 2 20 Sep 13:15:51 13:19:14 18° 61° (ENE) 13:22:38 436.500 FM
RS-15 20 Sep 13:23:18 13:34:25 71° 53° (NE) 13:45:57 29.354 - 29.394 USB, Beacon 29.352 USB
Oscar 19 20 Sep 13:25:05 13:29:59 44° 70° (ENE) 13:34:55 437.125 CW, 437.150 USB
JAS-1B 20 Sep 13:27:44 13:35:12 38° 66° (ENE) 13:41:35 435.800 - 435.900 CW/SSB
Sapphire 20 Sep 13:33:21 13:38:30 44° 306° (NW) 13:43:42 437.095 MHz 1200 baud AX-25 AFSK
TMSAT-1 20 Sep 13:44:02 13:45:12 11° 56° (ENE) 13:46:23 436.925 FM
AO-27 20 Sep 13:45:45 13:50:14 31° 66° (ENE) 13:54:45 436.795 MHz FM
PCSat 20 Sep 14:01:10 14:05:45 27° 312° (NW) 14:10:21 145.825 MHz
Oscar 16 20 Sep 14:03:43 14:08:55 80° 257° (WSW) 14:14:09 437.025 USB, Beacon 2401.1428
AO-Echo 20 Sep 14:10:14 14:14:51 55° 73° (ENE) 14:19:26 ?
AO-7 20 Sep 14:34:38 14:39:56 19° 49° (NE) 14:45:14 29.400 - 29.500 MHz
Gurwin Techsat 1B 20 Sep 14:42:44 14:47:48 48° 70° (ENE) 14:52:54 435.225 FM
ITAMSAT 1 20 Sep 14:49:04 14:54:13 72° 257° (WSW) 14:59:24 435.822 SSB
Uribyol 2 20 Sep 14:53:06 14:58:12 62° 258° (WSW) 15:03:22 436.500 FM
Oscar 19 20 Sep 15:05:26 15:09:30 23° 266° (W) 15:13:36 437.125 CW, 437.150 USB
JAS-1B 20 Sep 15:17:24 15:25:39 48° 260° (W) 15:32:38 435.800 - 435.900 CW/SSB
TMSAT-1 20 Sep 15:18:56 15:24:12 76° 74° (ENE) 15:29:31 436.925 FM
Uosat F 20 Sep 15:23:08 15:26:01 16° 60° (ENE) 15:28:55 435.120 FM
AO-27 20 Sep 15:25:02 15:29:40 33° 263° (W) 15:34:21 436.795 MHz FM
RS-15 20 Sep 15:36:29 15:45:57 34° 254° (WSW) 15:55:48 29.354 - 29.394 USB, Beacon 29.352 USB
AO-Echo 20 Sep 15:51:13 15:53:58 15° 269° (W) 15:56:44 ?
AO-7 20 Sep 16:23:09 16:31:26 78° 69° (ENE) 16:39:44 29.400 - 29.500 MHz
Gurwin Techsat 1B 20 Sep 16:24:00 16:28:01 22° 267° (W) 16:32:04 435.225 FM
JAS-2 20 Sep 16:45:41 16:48:15 14° 59° (ENE) 16:50:49 435.800 - 435.900 CW/SSB, 435.910 FM
Uosat F 20 Sep 16:59:16 17:04:14 68° 258° (WSW) 17:09:14 435.120 FM
TMSAT-1 20 Sep 17:02:10 17:04:42 13° 271° (W) 17:07:14 436.925 FM
MaSat-1 20 Sep 17:18:55 17:21:52 20° 50° (NE) 17:24:31 437.345 MHz
Saudisat 1A 20 Sep 17:18:58 17:23:14 53° 119° (ESE) 17:27:32 436.775 MHz
Hamsat 20 Sep 17:27:37 17:31:08 24° 68° (ENE) 17:34:39 145.90 MHz
KITSAT 1 20 Sep 17:59:33 18:03:08 14° 99° (E) 18:06:43 435.175 FM
OPAL 20 Sep 18:03:53 18:09:03 67° 104° (ESE) 18:14:07 ?
AO-7 20 Sep 18:18:49 18:24:59 23° 268° (W) 18:31:12 29.400 - 29.500 MHz
JAS-2 20 Sep 18:27:29 18:32:44 75° 257° (WSW) 18:37:56 435.800 - 435.900 CW/SSB, 435.910 FM
STRAND 1 20 Sep 18:48:24 18:50:46 13° 90° (E) 18:53:08 ?
MaSat-1 20 Sep 18:55:27 18:58:37 27° 254° (WSW) 19:01:24 437.345 MHz
Saudisat 1A 20 Sep 18:59:45 19:03:07 21° 317° (NW) 19:06:29 436.775 MHz
Hamsat 20 Sep 19:03:04 19:06:56 31° 264° (W) 19:10:50 145.90 MHz
OPAL 20 Sep 19:44:05 19:47:22 17° 302° (WNW) 19:50:38 ?
SO-67 20 Sep 19:46:58 19:50:23 61° 260° (W) 19:53:49 435.3500 MHz FM
KITSAT 1 20 Sep 19:49:05 19:57:07 74° 117° (ESE) 20:05:12 435.175 FM
HO-68 20 Sep 19:53:03 19:58:27 24° 57° (ENE) 20:03:51 435.675 MHz FM
STRAND 1 20 Sep 20:25:22 20:30:30 75° 286° (WNW) 20:35:38 ?
Sapphire 20 Sep 20:37:44 20:42:20 27° 48° (NE) 20:46:55 437.095 MHz 1200 baud AX-25 AFSK
Oscar 11 20 Sep 20:43:30 20:44:19 11° 60° (ENE) 20:45:09 145.825 FM, Beacon 2401.500 USB
UKube-1 20 Sep 20:58:41 21:01:58 22° 66° (ENE) 21:05:16 145.840 MHz, 145.915 MHz
PCSat 20 Sep 21:04:20 21:09:32 44° 54° (NE) 21:14:42 145.825 MHz
SO-50 20 Sep 21:28:43 21:31:06 14° 108° (ESE) 21:33:30 436.795 FM
HO-68 20 Sep 21:38:22 21:45:29 72° 256° (WSW) 21:52:39 435.675 MHz FM
KITSAT 1 20 Sep 21:46:15 21:53:15 31° 319° (NW) 22:00:17 435.175 FM
STRAND 1 20 Sep 22:08:14 22:08:47 10° 304° (WNW) 22:09:21 ?
FUNcube-1 20 Sep 22:09:02 22:13:02 34° 70° (ENE) 22:17:08 145.950 - 145.970 MHz USB
Oscar 11 20 Sep 22:15:28 22:19:50 82° 257° (WSW) 22:24:14 145.825 FM, Beacon 2401.500 USB
Sapphire 20 Sep 22:20:46 22:26:00 50° 247° (WSW) 22:31:12 437.095 MHz 1200 baud AX-25 AFSK
UKube-1 20 Sep 22:33:59 22:37:57 35° 262° (W) 22:41:57 145.840 MHz, 145.915 MHz
PCSat 20 Sep 22:48:12 22:52:43 27° 252° (WSW) 22:57:12 145.825 MHz
UOSAT-12 20 Sep 23:01:53 23:02:08 10° 106° (ESE) 23:02:22 437.025 FM, 437.400 FM
SO-50 20 Sep 23:06:37 23:11:04 65° 306° (NW) 23:15:40 436.795 FM
HO-68 20 Sep 23:32:15 23:34:21 11° 274° (W) 23:36:28 435.675 MHz FM
FUNcube-1 20 Sep 23:46:00 23:49:29 23° 267° (W) 23:53:04 145.950 - 145.970 MHz USB
KITSAT 1 20 Sep 23:48:22 23:51:49 13° 347° (NNW) 23:55:16 435.175 FM
UOSAT-12 21 Sep 00:36:52 00:41:29 90° 123° (ESE) 00:46:14 437.025 FM, 437.400 FM
SO-50 21 Sep 00:50:45 00:52:35 12° 327° (NNW) 00:54:26 436.795 FM
Oscar 19 21 Sep 01:37:44 01:40:36 15° 90° (E) 01:43:26 437.125 CW, 437.150 USB
Saudisat 1A 21 Sep 01:45:15 01:49:33 48° 52° (NE) 01:53:49 436.775 MHz
KITSAT 1 21 Sep 01:47:14 01:51:30 15° 19° (NNE) 01:55:45 435.175 FM
Oscar 16 21 Sep 02:15:22 02:20:06 35° 97° (E) 02:24:47 437.025 USB, Beacon 2401.1428
AO-Echo 21 Sep 02:17:39 02:20:52 17° 92° (E) 02:24:07 ?
UOSAT-12 21 Sep 02:19:26 02:22:19 16° 323° (NW) 02:25:15 437.025 FM, 437.400 FM
